Regional Weather Roundup
Issued by NWS

Home | Current Version | Previous Version | Graphics & Text | Print | Product List | Glossary On
Versions: 1 2 3 4 5 6 7 8 9 10 11 12 13 14 15 16 17 18 19 20 21 22 23 24 25 26 27 28 29 30 31 32 33 34 35 36 37 38 39 40 41 42 43 44 45 46 47 48 49 50
000
ASUS45 KBOI 060310
RWRID
WEATHER ROUNDUP FOR IDAHO
NATIONAL WEATHER SERVICE BOISE ID
900 PM MDT TUE MAY 05 2015

NOTE: "FAIR" INDICATES FEW OR NO CLOUDS BELOW 12000 FEET
WITH NO SIGNIFICANT WEATHER AND/OR OBSTRUCTIONS TO VISIBILITY

IDZ012-014-060400-
SOUTHWEST IDAHO


CITY           SKY/WX    TMP DP  RH WIND       PRES   REMARKS
BOISE          CLEAR     63  17  17 NW18G24   29.80R
CALDWELL       CLEAR     61  23  23 NW14      29.83R
MOUNTAIN HOME  CLEAR     61  21  21 NW14      29.79R
$$

IDZ016-017-060400-
SOUTHCENTRAL IDAHO


CITY           SKY/WX    TMP DP  RH WIND       PRES   REMARKS
BURLEY         CLOUDY    57  29  34 SW13      29.78R
JEROME         PTCLDY    59  22  24 SW13      29.79R
TWIN FALLS     PTCLDY    58  20  22 SW12      29.81R
$$

IDZ019>023-060400-
SOUTHEAST IDAHO


CITY           SKY/WX    TMP DP  RH WIND       PRES   REMARKS
IDAHO FALLS    CLOUDY    54  46  74 E12       29.79R
POCATELLO      CLEAR     57  43  59 E7        29.79R
REXBURG        CLOUDY    50  45  83 NE8       29.79S
$$

IDZ006-010-011-018-031-032-060400-
CENTRAL IDAHO MOUNTAINS


CITY           SKY/WX    TMP DP  RH WIND       PRES   REMARKS
MCCALL         CLEAR     50  25  37 NW10      29.87R
HAILEY         PTCLDY    59  25  27 W7        29.80R
STANLEY          N/A     51  26  37 VRB3      29.87R
SALMON           N/A     54  41  62 N8        29.79R
CHALLIS        PTCLDY    58  36  43 N10       29.76R
$$

IDZ002-004-006-007-026-060400-
NORTHERN IDAHO


CITY           SKY/WX    TMP DP  RH WIND       PRES   REMARKS
LEWISTON       MOCLDY    59  25  27 W9        29.93R
LOWELL           N/A     52  41  66 CALM      29.92R
COEUR D`ALENE  MOCLDY    54  25  32 S9        29.93R
MULLAN PASS    MOCLDY    36  21  54 SW6       29.94R WCI  31
$$



USA.gov is the U.S. government's official web portal to all federal, state and local government web resources and services.